Regional Weather Roundup
Issued by NWS

Home | Current Version | Previous Version | Graphics & Text | Print | Product List | Glossary On
Versions: 1 2 3 4 5 6 7 8 9 10 11 12 13 14 15 16 17 18 19 20 21 22 23 24 25 26 27 28 29 30 31 32 33 34 35 36 37 38 39 40 41 42 43 44 45 46 47 48 49 50
237
ASUS44 KLIX 201410
RWRLA
LOUISIANA WEATHER ROUNDUP
NATIONAL WEATHER SERVICE NEW ORLEANS LA
900 AM CDT WED AUG 20 2014

NOTE: "FAIR" INDICATES FEW OR NO CLOUDS BELOW 12,000 FEET WITH NO
      SIGNIFICANT WEATHER AND/OR OBSTRUCTIONS TO VISIBILITY.
      SKY/WX - SKY CONDITION AND SIGNIFICANT WEATHER.
      TMP - AIR TEMPERATURE.    DP   - DEWPOINT TEMPERATURE.
      RH  - RELATIVE HUMIDITY.  PRES - PRESSURE.
      HX  - HEAT INDEX.         WCI  - WIND CHILL INDEX.

*  THESE STATIONS ARE NOT NWS OR FAA STATIONS AND ARE NOT UNDER
   NWS QUALITY CONTROL.

LAZ040-048-061>063-065-066-069-201500-
SOUTHEAST LOUISIANA

CITY           SKY/WX    TMP DP  RH WIND       PRES   REMARKS
N.O. AUDUBON     N/A     87  76  71 MISG        N/A  HX  97
N.O. INTL ARPT MOSUNNY   86  76  71 CALM      30.06R HX  96
N.O. LAKEFRONT MOSUNNY   85  76  74 CALM      30.07R
N.O. DOWNTOWN* FAIR      88  73  62 CALM      30.07R HX  96
SLIDELL        MOSUNNY   84  76  76 CALM      30.07R
BATON ROUGE    SUNNY     82  74  76 NE5       30.06R
BOOTHVILLE     SUNNY     87  75  67 S7        30.08R HX  96
BELLE CHASSE   PTSUNNY   86  76  71 CALM      30.06R HX  96
BOGALUSA*      FAIR      83  73  73 CALM      30.09R
GALLIANO*      NOT AVBL
NEW ROADS*     FAIR      79  75  87 NE3       30.06R
GONZALES*      FAIR      82  79  90 CALM      30.05S
HAMMOND*       SUNNY     84  72  65 CALM      30.08S
HOUMA*         MOSUNNY   86  75  70 CALM      30.06R HX  95
PORT FOURCHON* SUNNY     88  77  70 SW8       30.08R HX 100

$$

LAZ041-044-053-054-201500-
SOUTHWEST LOUISIANA

CITY           SKY/WX    TMP DP  RH WIND       PRES   REMARKS
LAKE CHARLES   SUNNY     81  77  88 E3        30.02R
LAFAYETTE      SUNNY     80  77  90 CALM      30.04R
PATTERSON      SUNNY    N/A N/A N/A MISG        N/A
SALT POINT       N/A     90  79  70 SW5       30.03R HX 106
NEW IBERIA     SUNNY     84  77  79 NE3       30.05R
CHENAULT AIRPK SUNNY     81  75  83 CALM      30.03R

$$

LAZ027-028-201500-
CENTRAL LOUISIANA

CITY           SKY/WX    TMP DP  RH WIND       PRES   REMARKS
FORT POLK      SUNNY     80  74  81 S5        30.03S
ALEXANDRIA INT PTSUNNY   78  73  84 SE8       30.03R
ALEXANDRIA     PTSUNNY   80  74  81 S3        30.05R

$$

LAZ001-002-201500-
NORTHWEST LOUISIANA

CITY           SKY/WX    TMP DP  RH WIND       PRES   REMARKS
SHREVEPORT     MOSUNNY   80  73  79 S8        30.02R
BARKSDALE AFB  MOSUNNY   80  72  76 S8        30.03R
DTN SHREVEPORT MOSUNNY   81  72  74 S9        30.02R

$$

LAZ014-016-201500-
NORTHEAST LOUISIANA

CITY           SKY/WX    TMP DP  RH WIND       PRES   REMARKS
MONROE         MOSUNNY   77  71  82 CALM      30.06R
TALLULAH       SUNNY     81  72  74 VRB3      30.06R

$$




USA.gov is the U.S. government's official web portal to all federal, state and local government web resources and services.